• Processing (Info)

  • MPEC 2019-L32 : 2019 LO

    The following Minor Planet Electronic Circular may be linked-to from your own Web pages, but must not otherwise be redistributed electronically.

    A form allowing access to any MPEC is at the bottom of this page.


    Read MPEC 2019-L31 Read MPEC 2019-L33


    M.P.E.C. 2019-L32                                Issued 2019 June 3, 15:56 UT
    
         The Minor Planet Electronic Circulars contain information on unusual
             minor planets and routine data on comets.  They are published
        on behalf of Division F of the International Astronomical Union by the
              Minor Planet Center, Smithsonian Astrophysical Observatory,
                              Cambridge, MA 02138, U.S.A.
    
                 Prepared using the Tamkin Foundation Computer Network
    
                                  MPC@CFA.HARVARD.EDU
                URL https://www.minorplanetcenter.net/    ISSN 1523-6714
    
                                        2019 LO
    
    Observations:
         K19L00O* C2019 06 01.36805 15 09 02.389-15 37 07.55         20.9 wUEL032F51
         K19L00O  C2019 06 01.37924 15 09 03.902-15 38 27.95         21.3 wUEL032F51
         K19L00O  C2019 06 01.40160 15 09 06.905-15 41 06.24         21.5 wUEL032F51
         K19L00O KC2019 06 02.25166 15 12 18.33 -17 11 22.0          21.5 RoEL032691
         K19L00O KC2019 06 02.27650 15 12 21.09 -17 13 39.6          21.1 RoEL032691
         K19L00O ^C2019 06 02.39572615 12 44.499-17 23 58.25         21.13GVEL032568
         K19L00O ^C2019 06 02.39673215 12 44.596-17 24 03.63         21.79GVEL032568
         K19L00O ^C2019 06 02.39775115 12 44.692-17 24 09.08         21.08GVEL032568
    
    Observer details:
    568 Mauna Kea.  Observers R. Wainscoat, L. Wells, T. Burdullis.  Measurers
        R. Weryk, R. Wainscoat.  3.6-m Canada-France-Hawaii Telescope + CCD.
    691 Steward Observatory, Kitt Peak-Spacewatch.  Observer M. J. Brucker.
        0.9-m f/3 reflector + CCD.
    F51 Pan-STARRS 1, Haleakala.  Observers J. Bulger, T. Lowe, A. Schultz,
        M. Willman.  Measurers K. Chambers, S. Chastel, T. de Boer, L. Denneau,
        J. Fairlamb, H. Flewelling, M. Huber, C.-C. Lin, E. Magnier,
        Y. Ramanjooloo, R. Wainscoat, R. Weryk.  1.8-m Ritchey-Chretien + CCD.
    
    Orbital elements:
    2019 LO                                                  Earth MOID = 0.0059 AU
    Epoch 2019 Apr. 27.0 TT = JDT 2458600.5                 MPC
    M  43.22527              (2000.0)            P               Q
    n   0.94078422     Peri.   69.90766     -0.77965131     -0.62475406
    a   1.0315162      Node    71.40390     +0.55638150     -0.72241013
    e   0.2774628      Incl.    2.58424     +0.28737338     -0.29632071
    P   1.05           H   27.6           G   0.15           U   8
    Residuals in seconds of arc
    190601 F51  0.0   0.0     190602 691  0.4-  0.3-    190602 568  0.0   0.1+
    190601 F51  0.1+  0.1-    190602 691  0.4+  0.2+    190602 568  0.0   0.1+
    190601 F51  0.1-  0.1+    190602 568  0.0   0.1+
    
    Ephemeris:
    2019 LO                  a,e,i = 1.03, 0.28, 3                   q = 0.7453
    Date    TT    R. A. (2000) Decl.     Delta      r     Elong.  Phase     V
    2019 05 04    03 44 44.0 +30 58 58   0.1097  0.9066    20.9   156.6    32.5
    ...
    2019 05 19    04 11 00.5 +39 50 59   0.03429 0.9797    21.3   158.0    30.6
    ...
    2019 05 27    13 51 06.0 +24 04 58   0.0094511.0183   123.1    56.5    19.6
    ...
    2019 06 02    15 11 26.6 -16 43 44   0.03462 1.0465   159.0    20.3    21.4
    2019 06 03    15 14 36.6 -18 12 14   0.03934 1.0511   159.2    20.0    21.7
    2019 06 04    15 17 11.5 -19 21 46   0.04410 1.0557   159.1    20.0    21.9
    ...
    2019 06 10    15 26 50.9 -23 07 18   0.07343 1.0828   156.2    22.2    23.2
    ...
    2019 06 18    15 34 50.6 -25 05 45   0.1144  1.1171   150.7    26.5    24.3
    ...
    2019 07 03    15 49 15.9 -26 33 35   0.1983  1.1755   139.9    33.8    25.8
    
    A. U. Tomatic                (C) Copyright 2019 MPC           M.P.E.C. 2019-L32
    

    Read MPEC 2019-L31 Read MPEC 2019-L33


    MPEC number:

    Enter an MPEC number in one of the following forms:

    • 1997-B01 (the full form)
    • J97B01 (the packed version of the full form)
    • B01 (the abbreviated form)